Content
SEND FEEDBACK

Daily
Averages
Monthly
Summary
United States of America

PYGA BEACH, GUAM


Home > North America > United States > Guam
Elevation: 6 meters     Latitude: 13 17N     Longitude: 144 39E

WEATHER
 
SELECT A DAY
Number of Records: 342,038;   Date Range: 1/1/95 - 7/29/14
 
SHARE

PRINT THIS DATA

[ ← Previous Day ]
WEATHER ALMANAC - 29 OCTOBER, 2013
[ Next Day → ]
[ °F ]   °C
Weather ElementAverageHighLow
Temperature27.4 °C29.3 °C (12:58 pm)24.1 °C (2:58 am)
Dewpoint25.5 °C26.4 °C (9:58 am)23.8 °C (2:58 am)
Humidity89.3 %98 % (1:58 am)82 % (12:58 pm)
Barometer1012.2 hPa1014.2 hPa (10:18 pm)1009.5 hPa (2:58 pm)
Wind Speed17.2 km/h29.6 km/h (3:23 pm)
Wind Gust37 km/h (10:38 pm)
Weather ElementAverage
Visibility15.9 km
Wind DirectionE (92.2 °)

Weather ElementTotal
Precipitation---
Cooling Degree Days8.4 (Base 18.3)
Growing Degree Days16.7 (Base 10)
Averaged from 78 records on 29 October, 2013
WEATHER CONDITIONS BREAKOUT
WIND DIRECTION BREAKOUT
WEATHER BY HOUR - 29 OCTOBER, 2013
[ °F ]   °C
Local TimeTemperatureDewpointHumidityBarometerVisibilityWind DirectionWind SpeedGust SpeedPrecipitationEventsConditions
1:58 AM24.3 °C24 °C98 %1009.8 hPa16.1 kmCalmClear
2:58 AM24.1 °C23.8 °C98 %1009.8 hPa16.1 kmSE (140°)3.7 km/hClear
3:58 AM25.3 °C24.6 °C96 %1010.2 hPa16.1 kmESE (110°)14.8 km/hMostly Cloudy
4:23 AM26 °C25 °C94 %1011.2 hPa16.1 kmEast (100°)14.8 km/hMostly Cloudy
4:28 AM26 °C25 °C94 %1011.2 hPa16.1 kmEast (100°)16.7 km/hScattered Clouds
4:58 AM25.5 °C24.8 °C96 %1009.8 hPa16.1 kmESE (110°)13 km/hPartly Cloudy
5:58 AM25.6 °C24.7 °C95 %1011.2 hPa16.1 kmEast (90°)14.8 km/hMostly Cloudy
6:23 AM26 °C25 °C94 %1012.2 hPa16.1 kmEast (90°)16.7 km/hMostly Cloudy
6:33 AM26 °C25 °C94 %1012.5 hPa16.1 kmEast (100°)14.8 km/hMostly Cloudy
6:38 AM26 °C25 °C94 %1012.9 hPa16.1 kmEast (100°)13 km/hMostly Cloudy
6:58 AM26.1 °C24.9 °C93 %1011.9 hPa16.1 kmEast (80°)14.8 km/hMostly Cloudy
7:03 AM26 °C25 °C94 %1012.9 hPa16.1 kmEast (90°)18.5 km/hMostly Cloudy
7:08 AM26 °C25 °C94 %1012.9 hPa16.1 kmEast (90°)14.8 km/hMostly Cloudy
7:28 AM27 °C25 °C89 %1013.2 hPa16.1 kmEast (100°)9.3 km/hMostly Cloudy
7:33 AM27 °C25 °C89 %1013.2 hPa16.1 kmEast (90°)13 km/hMostly Cloudy
7:38 AM27 °C25 °C89 %1013.2 hPa16.1 kmEast (90°)9.3 km/hMostly Cloudy
7:53 AM27 °C26 °C94 %1013.2 hPa16.1 kmEast (90°)13 km/hMostly Cloudy
7:58 AM27.2 °C25.7 °C91 %1012.2 hPa16.1 kmEast (90°)16.7 km/hOvercast
8:08 AM27 °C26 °C94 %1013.5 hPa16.1 kmEast (90°)14.8 km/hMostly Cloudy
8:13 AM27 °C26 °C94 %1013.5 hPa16.1 kmEast (80°)13 km/hMostly Cloudy
8:18 AM28 °C26 °C89 %1013.5 hPa16.1 kmEast (90°)16.7 km/hMostly Cloudy
8:23 AM28 °C25 °C84 %1013.5 hPa16.1 kmEast (90°)14.8 km/hMostly Cloudy
8:34 AM28 °C26 °C89 %1013.5 hPa16.1 kmEast (100°)14.8 km/hScattered Clouds
8:58 AM28.4 °C25.5 °C84 %1012.9 hPa16.1 kmEast (100°)13 km/hPartly Cloudy
9:58 AM28.6 °C26.4 °C88 %1013.2 hPa16.1 kmEast (100°)16.7 km/hScattered Clouds
10:23 AM29 °C26 °C84 %1013.9 hPa16.1 kmESE (110°)18.5 km/hMostly Cloudy
10:28 AM29 °C26 °C84 %1013.9 hPa16.1 kmESE (110°)20.4 km/hMostly Cloudy
10:43 AM29 °C26 °C84 %1013.5 hPa16.1 kmESE (110°)20.4 km/hMostly Cloudy
10:48 AM29 °C26 °C84 %1013.5 hPa16.1 kmEast (90°)22.2 km/hMostly Cloudy
10:58 AM28.9 °C26.1 °C85 %1012.9 hPa16.1 kmEast (90°)22.2 km/hMostly Cloudy
11:22 AM28 °C26 °C89 %1013.5 hPa16.1 kmEast (90°)24.1 km/hMostly Cloudy
11:27 AM29 °C26 °C84 %1013.2 hPa16.1 kmEast (100°)22.2 km/hMostly Cloudy
11:32 AM29 °C26 °C84 %1013.2 hPa16.1 kmESE (110°)20.4 km/hMostly Cloudy
11:37 AM29 °C26 °C84 %1013.2 hPa16.1 kmEast (100°)20.4 km/hMostly Cloudy
11:52 AM29 °C26 °C84 %1012.9 hPa16.1 kmEast (90°)22.2 km/hScattered Clouds
11:58 AM29 °C25.9 °C83 %1011.9 hPa16.1 kmEast (90°)20.4 km/hScattered Clouds
12:03 PM29 °C26 °C84 %1012.9 hPa16.1 kmEast (90°)24.1 km/hScattered Clouds
12:13 PM29 °C26 °C84 %1012.5 hPa16.1 kmEast (100°)20.4 km/hMostly Cloudy
12:18 PM29 °C26 °C84 %1012.5 hPa16.1 kmEast (80°)22.2 km/hScattered Clouds
12:58 PM29.3 °C26 °C82 %1011.2 hPa16.1 kmEast (80°)22.2 km/hPartly Cloudy
1:18 PM29 °C26 °C84 %1011.5 hPa16.1 kmEast (100°)20.4 km/hMostly Cloudy
1:23 PM29 °C26 °C84 %1011.5 hPa16.1 kmEast (80°)24.1 km/hScattered Clouds
1:33 PM29 °C26 °C84 %1011.5 hPa16.1 kmEast (90°)18.5 km/hMostly Cloudy
1:38 PM29 °C26 °C84 %1011.5 hPa16.1 kmEast (100°)18.5 km/hScattered Clouds
1:53 PM29 °C26 °C84 %1011.2 hPa16.1 kmESE (110°)20.4 km/hMostly Cloudy
1:58 PM28.8 °C25.8 °C84 %1010.2 hPa16.1 kmEast (90°)22.2 km/hMostly Cloudy
2:38 PM28 °C25 °C84 %1010.8 hPa16.1 kmEast (100°)20.4 km/hScattered Clouds
2:58 PM28.8 °C25.7 °C83 %1009.5 hPa16.1 kmESE (110°)13 km/hScattered Clouds
3:23 PM28 °C26 °C89 %1010.8 hPa16.1 kmEast (80°)29.6 km/hMostly Cloudy
3:24 PM28 °C26 °C89 %1010.5 hPa14.5 kmEast (80°)27.8 km/hRainLight Rain
3:29 PM27 °C26 °C94 %1010.5 hPa9.7 kmEast (80°)16.7 km/hRainLight Rain
3:34 PM27 °C25 °C89 %1010.5 hPa11.3 kmEast (90°)16.7 km/hRainLight Rain
3:37 PM27 °C25 °C89 %1010.5 hPa16.1 kmEast (100°)14.8 km/hScattered Clouds
3:42 PM27 °C26 °C94 %1010.5 hPa16.1 kmEast (90°)16.7 km/hMostly Cloudy
3:47 PM27 °C26 °C94 %1010.5 hPa16.1 kmEast (90°)13 km/hMostly Cloudy
3:57 PM27 °C26 °C94 %1010.5 hPa16.1 kmEast (90°)11.1 km/hMostly Cloudy
3:58 PM27 °C26 °C94 %1009.5 hPa16.1 kmEast (90°)11.1 km/h0 mmMostly Cloudy
4:03 PM27 °C26 °C94 %1010.5 hPa16.1 kmEast (90°)11.1 km/hMostly Cloudy
4:58 PM27.4 °C25.7 °C90 %1009.8 hPa16.1 kmEast (100°)9.3 km/hScattered Clouds
5:13 PM27 °C26 °C94 %1011.2 hPa16.1 kmEast (90°)9.3 km/hMostly Cloudy
5:18 PM27 °C26 °C94 %1011.2 hPa16.1 kmEast (100°)9.3 km/hScattered Clouds
5:48 PM27 °C26 °C94 %1011.2 hPa16.1 kmEast (100°)13 km/hMostly Cloudy
5:58 PM27 °C26 °C94 %1010.5 hPa16.1 kmEast (100°)9.3 km/hScattered Clouds
6:18 PM27 °C26 °C94 %1011.9 hPa16.1 kmEast (100°)14.8 km/hMostly Cloudy
6:28 PM27 °C25 °C89 %1012.2 hPa16.1 kmEast (90°)16.7 km/hScattered Clouds
6:58 PM26.8 °C24.9 °C89 %1011.5 hPa16.1 kmEast (100°)13 km/hScattered Clouds
7:58 PM26.5 °C24.4 °C88 %1012.2 hPa16.1 kmEast (90°)18.5 km/hScattered Clouds
8:48 PM27 °C25 °C89 %1013.9 hPa16.1 kmEast (80°)18.5 km/hMostly Cloudy
8:58 PM26.9 °C25.1 °C90 %1012.9 hPa16.1 kmEast (100°)16.7 km/hMostly Cloudy
9:13 PM27 °C25 °C89 %1013.9 hPa16.1 kmEast (90°)20.4 km/hMostly Cloudy
9:58 PM26.9 °C25.1 °C90 %1013.2 hPa16.1 kmENE (70°)25.9 km/h35.2 km/hMostly Cloudy
10:18 PM27 °C25 °C89 %1014.2 hPa16.1 kmEast (80°)24.1 km/hMostly Cloudy
10:23 PM27 °C25 °C89 %1014.2 hPa16.1 kmEast (80°)24.1 km/hScattered Clouds
10:28 PM27 °C25 °C89 %1014.2 hPa16.1 kmEast (80°)25.9 km/hScattered Clouds
10:38 PM27 °C25 °C89 %1014.2 hPa16.1 kmEast (80°)22.2 km/h37 km/hMostly Cloudy
10:43 PM27 °C25 °C89 %1014.2 hPa16.1 kmEast (80°)25.9 km/hScattered Clouds
10:58 PM26.7 °C24.6 °C88 %1012.9 hPa16.1 kmEast (80°)18.5 km/hPartly Cloudy
11:58 PM26.5 °C24.6 °C89 %1012.9 hPa16.1 kmEast (90°)16.7 km/hScattered Clouds
Hourly data recorded from PGUA, located 0 kilometers away from Pyga Beach, Guam







STORIES FROM OUR PARTNERS